Weather History for Hailey, ID

Change the Weather History Date:

Monday, June 9, 2014

  Actual Average Record
Temperature  
Mean Temperature 62 °F -  
Max Temperature 80 °F 70 °F 84 °F (2013)
Min Temperature 44 °F 43 °F 30 °F (2002)
Degree Days  
Heating Degree Days 3    
Growing Degree Days 12 (Base 50)    
Moisture  
Dew Point 35 °F    
Average Humidity 48    
Maximum Humidity 71    
Minimum Humidity 17    
Precipitation  
Precipitation 0.00 in - - ()
Sea Level Pressure  
Sea Level Pressure 30.07 in    
Wind  
Wind Speed 8 mph (NW)    
Max Wind Speed 15 mph    
Max Gust Speed 29 mph    
Visibility 10 miles    
Events      
Averages and records for this station are not official NWS values.
T = Trace of Precipitation, MM = Missing Value Source: NWS Daily Summary

Daily Weather History Graph

Daily Weather History Graph

Search for Another Location

Airport:

Trip Planner

Search our weather history database for the weather conditions in past years. The results will help you decide how hot, cold, wet, or windy it might be!

Date:

Astronomy

Jun. 09, 2014 Rise Set
Actual Time 5:56 AM MDT 9:17 PM MDT
Civil Twilight 5:20 AM MDT 9:52 PM MDT
Nautical Twilight 4:34 AM MDT 10:38 PM MDT
Astronomical Twilight 3:37 AM MDT 11:36 PM MDT
Moon 5:36 PM MDT (6/9) 3:32 AM MDT (6/9)
Length of Visible Light 16h 31m
Length of Day
15h 20m
Waxing Gibbous, 85% of the Moon is Illuminated
Jun 9
Waxing Gibbous
Jun 12
Full
Jun 19
Last Quarter
Jun 27
New
Jul 5
First Quarter

Hourly Weather History & Observations

Time (MDT) Temp. Windchill Dew Point Humidity Pressure Visibility Wind Dir Wind Speed Gust Speed Precip Events Conditions
12:15 AM 50.0 °F - 39.2 °F 66% 30.14 in 10.0 mi NW 6.9 mph - N/A   Clear
12:35 AM 51.8 °F - 37.4 °F 58% 30.14 in 10.0 mi WNW 6.9 mph - N/A   Clear
12:55 AM 51.8 °F - 37.4 °F 58% 30.14 in 10.0 mi NW 8.1 mph - N/A   Clear
1:15 AM 51.8 °F - 37.4 °F 58% 30.14 in 10.0 mi NW 9.2 mph - N/A   Clear
1:35 AM 50.0 °F - 37.4 °F 62% 30.14 in 10.0 mi NW 8.1 mph - N/A   Clear
1:55 AM 51.8 °F - 37.4 °F 58% 30.14 in 10.0 mi NW 6.9 mph - N/A   Clear
2:15 AM 50.0 °F - 37.4 °F 62% 30.14 in 10.0 mi NW 10.4 mph - N/A   Clear
2:35 AM 50.0 °F - 35.6 °F 58% 30.14 in 10.0 mi NW 10.4 mph - N/A   Clear
2:55 AM 50.0 °F - 35.6 °F 58% 30.13 in 10.0 mi NNW 9.2 mph - N/A   Clear
3:15 AM 50.0 °F - 35.6 °F 58% 30.13 in 10.0 mi NW 8.1 mph - N/A   Clear
3:35 AM 48.2 °F - 35.6 °F 62% 30.13 in 10.0 mi NNW 8.1 mph - N/A   Clear
3:55 AM 48.2 °F - 35.6 °F 62% 30.13 in 10.0 mi NW 6.9 mph - N/A   Clear
4:15 AM 46.4 °F 41.9 °F 35.6 °F 66% 30.13 in 10.0 mi NW 9.2 mph - N/A   Clear
4:35 AM 46.4 °F 41.9 °F 35.6 °F 66% 30.13 in 10.0 mi NW 9.2 mph - N/A   Clear
4:55 AM 46.4 °F 42.4 °F 35.6 °F 66% 30.13 in 10.0 mi NW 8.1 mph - N/A   Clear
5:15 AM 44.6 °F 39.7 °F 35.6 °F 71% 30.13 in 10.0 mi WNW 9.2 mph - N/A   Clear
5:35 AM 44.6 °F 39.7 °F 35.6 °F 71% 30.13 in 10.0 mi NW 9.2 mph - N/A   Clear
5:55 AM 44.6 °F 39.7 °F 35.6 °F 71% 30.14 in 10.0 mi NW 9.2 mph - N/A   Clear
6:35 AM 44.6 °F 39.7 °F 35.6 °F 71% 30.14 in 10.0 mi NW 9.2 mph - N/A   Clear
6:47 AM 44.6 °F 39.7 °F 35.6 °F 71% 30.14 in 10.0 mi WNW 9.2 mph - N/A   Partly Cloudy
7:47 AM 50.0 °F - 35.6 °F 58% 30.13 in 10.0 mi WNW 13.8 mph - N/A   Partly Cloudy
8:47 AM 55.4 °F - 35.6 °F 47% 30.13 in 10.0 mi NW 9.2 mph - N/A   Partly Cloudy
9:47 AM 62.6 °F - 37.4 °F 39% 30.12 in 10.0 mi Calm Calm - N/A   Partly Cloudy
11:50 AM 69.8 °F - 46.4 °F 43% 30.08 in 10.0 mi ESE 9.2 mph - N/A   Partly Cloudy
1:50 PM 75.2 °F - 37.4 °F 25% 30.02 in 10.0 mi South 6.9 mph 19.6 mph N/A   Partly Cloudy
2:47 PM 77.0 °F - 41.0 °F 28% 30.00 in 10.0 mi SSE 6.9 mph 28.8 mph N/A   Partly Cloudy
3:50 PM 78.8 °F - 35.6 °F 21% 29.98 in 10.0 mi South 13.8 mph - N/A   Partly Cloudy
4:55 PM 80.6 °F - 32.0 °F 17% 29.97 in 10.0 mi NW 15.0 mph - N/A   Partly Cloudy
5:47 PM 80.6 °F - 32.0 °F 17% 29.95 in 10.0 mi North - - N/A   Partly Cloudy
6:55 PM 77.0 °F - 32.0 °F 19% 29.95 in 10.0 mi NNW 11.5 mph - N/A   Partly Cloudy
7:47 PM 75.2 °F - 26.6 °F 17% 29.95 in 10.0 mi West 11.5 mph 17.3 mph N/A   Partly Cloudy
8:50 PM 75.2 °F - 30.2 °F 19% 29.94 in 10.0 mi NNW 5.8 mph - N/A   Clear
9:47 PM 64.4 °F - 33.8 °F 32% 29.94 in 10.0 mi West 5.8 mph - N/A   Clear
10:47 PM 64.4 °F - 32.0 °F 30% 29.95 in 10.0 mi Calm Calm - N/A   Clear
11:15 PM 62.6 °F - 32.0 °F 32% 29.96 in 10.0 mi NW 5.8 mph - N/A   Clear
11:35 PM 60.8 °F - 32.0 °F 34% 29.96 in 10.0 mi NNW 6.9 mph - N/A   Clear
11:55 PM 57.2 °F - 33.8 °F 41% 29.96 in 10.0 mi NW 8.1 mph - N/A   Clear